Time,TemperatureF,DewpointF,PressureIn,WindDirection,WindDirectionDegrees,WindSpeedMPH,WindSpeedGustMPH,Humidity,HourlyPrecipIn,Conditions,Clouds,dailyrainin,SoftwareType,DateUTC
2013-10-03 00:01:00,77.6,68.7,29.93,East,79,2.0,2.0,74,0.00,,,0.00,Wunderground v.1.15,2013-10-03 04:01:00,
2013-10-03 00:02:00,77.6,68.7,29.93,East,79,0.0,2.0,74,0.00,,,0.00,Wunderground v.1.15,2013-10-03 04:02:00,
2013-10-03 00:03:00,77.6,68.7,29.93,East,79,0.0,2.0,74,0.00,,,0.00,Wunderground v.1.15,2013-10-03 04:03:00,
2013-10-03 00:04:00,77.6,68.7,29.93,East,88,5.0,5.0,74,0.00,,,0.00,Wunderground v.1.15,2013-10-03 04:04:00,
2013-10-03 00:05:00,77.6,68.7,29.93,East,92,0.0,5.0,74,0.00,,,0.00,Wunderground v.1.15,2013-10-03 04:05:00,
2013-10-03 00:06:00,77.6,68.7,29.93,East,92,0.0,5.0,74,0.00,,,0.00,Wunderground v.1.15,2013-10-03 04:06:00,
2013-10-03 00:11:00,77.4,68.5,29.93,ENE,71,0.0,3.0,74,0.00,,,0.00,Wunderground v.1.15,2013-10-03 04:11:00,
2013-10-03 00:17:00,77.4,68.5,29.93,East,97,0.0,7.0,74,0.00,,,0.00,Wunderground v.1.15,2013-10-03 04:17:00,
2013-10-03 00:23:00,77.2,68.3,29.93,East,82,0.0,5.0,74,0.00,,,0.00,Wunderground v.1.15,2013-10-03 04:23:00,
2013-10-03 00:28:00,77.2,68.7,29.93,ENE,75,0.0,5.0,75,0.00,,,0.00,Wunderground v.1.15,2013-10-03 04:28:00,
2013-10-03 00:33:00,77.2,68.7,29.93,East,93,0.0,2.0,75,0.00,,,0.00,Wunderground v.1.15,2013-10-03 04:33:00,
2013-10-03 00:38:00,77.0,68.5,29.93,ENE,64,7.0,7.0,75,0.00,,,0.00,Wunderground v.1.15,2013-10-03 04:38:00,
2013-10-03 00:44:00,77.0,68.5,29.93,ENE,72,0.0,3.0,75,0.00,,,0.00,Wunderground v.1.15,2013-10-03 04:44:00,
2013-10-03 00:49:00,76.8,68.7,29.93,East,85,0.0,3.0,76,0.00,,,0.00,Wunderground v.1.15,2013-10-03 04:49:00,
2013-10-03 00:55:00,76.8,68.7,29.93,East,97,1.0,1.0,76,0.00,,,0.00,Wunderground v.1.15,2013-10-03 04:55:00,
2013-10-03 01:00:00,76.7,68.6,29.93,East,88,3.0,3.0,76,0.00,,,0.00,Wunderground v.1.15,2013-10-03 05:00:00,
2013-10-03 01:05:00,76.5,68.4,29.93,ENE,69,0.0,4.0,76,0.00,,,0.00,Wunderground v.1.15,2013-10-03 05:05:00,
2013-10-03 01:10:00,76.5,68.4,29.93,East,86,0.0,1.0,76,0.00,,,0.00,Wunderground v.1.15,2013-10-03 05:10:00,
2013-10-03 01:16:00,76.5,68.4,29.93,NE,56,0.0,1.0,76,0.00,,,0.00,Wunderground v.1.15,2013-10-03 05:16:00,
2013-10-03 01:22:00,76.3,68.6,29.93,East,83,0.0,2.0,77,0.00,,,0.00,Wunderground v.1.15,2013-10-03 05:22:00,
2013-10-03 01:27:00,76.1,68.4,29.93,East,89,0.0,2.0,77,0.00,,,0.00,Wunderground v.1.15,2013-10-03 05:27:00,
2013-10-03 01:32:00,76.1,68.4,29.93,ENE,73,0.0,2.0,77,0.00,,,0.00,Wunderground v.1.15,2013-10-03 05:32:00,
2013-10-03 01:38:00,76.0,68.3,29.93,East,89,0.0,2.0,77,0.00,,,0.00,Wunderground v.1.15,2013-10-03 05:38:00,
2013-10-03 01:43:00,76.0,68.3,29.93,East,90,6.0,6.0,77,0.00,,,0.00,Wunderground v.1.15,2013-10-03 05:43:00,
2013-10-03 01:49:00,75.8,68.4,29.93,ESE,119,0.0,6.0,78,0.00,,,0.00,Wunderground v.1.15,2013-10-03 05:49:00,
2013-10-03 01:55:00,75.8,68.4,29.93,ENE,71,0.0,0.0,78,0.00,,,0.00,Wunderground v.1.15,2013-10-03 05:55:00,
2013-10-03 02:00:00,75.6,68.3,29.93,ENE,71,0.0,0.0,78,0.00,,,0.00,Wunderground v.1.15,2013-10-03 06:00:00,
2013-10-03 02:05:00,75.6,68.3,29.92,ENE,61,5.0,6.0,78,0.00,,,0.00,Wunderground v.1.15,2013-10-03 06:05:00,
2013-10-03 02:10:00,75.4,68.1,29.92,ENE,66,0.0,0.0,78,0.00,,,0.00,Wunderground v.1.15,2013-10-03 06:10:00,
2013-10-03 02:15:00,75.4,68.4,29.92,ESE,104,0.0,2.0,79,0.00,,,0.00,Wunderground v.1.15,2013-10-03 06:15:00,
2013-10-03 02:20:00,75.3,68.3,29.92,ENE,66,0.0,0.0,79,0.00,,,0.00,Wunderground v.1.15,2013-10-03 06:20:00,
2013-10-03 02:25:00,75.3,68.3,29.92,East,86,0.0,2.0,79,0.00,,,0.00,Wunderground v.1.15,2013-10-03 06:25:00,
2013-10-03 02:30:00,75.1,68.1,29.92,East,100,0.0,0.0,79,0.00,,,0.00,Wunderground v.1.15,2013-10-03 06:30:00,
2013-10-03 02:35:00,75.1,68.1,29.91,East,92,0.0,3.0,79,0.00,,,0.00,Wunderground v.1.15,2013-10-03 06:35:00,
2013-10-03 02:41:00,75.1,68.1,29.91,ENE,73,0.0,0.0,79,0.00,,,0.00,Wunderground v.1.15,2013-10-03 06:41:00,
2013-10-03 02:46:00,74.9,68.3,29.91,ESE,102,0.0,5.0,80,0.00,,,0.00,Wunderground v.1.15,2013-10-03 06:46:00,
2013-10-03 02:51:00,74.9,68.3,29.91,East,100,0.0,0.0,80,0.00,,,0.00,Wunderground v.1.15,2013-10-03 06:51:00,
2013-10-03 02:56:00,74.7,68.1,29.91,East,96,0.0,3.0,80,0.00,,,0.00,Wunderground v.1.15,2013-10-03 06:56:00,
2013-10-03 03:01:00,74.7,68.1,29.91,East,96,0.0,0.0,80,0.00,,,0.00,Wunderground v.1.15,2013-10-03 07:01:00,
2013-10-03 03:06:00,74.6,68.0,29.90,East,96,0.0,0.0,80,0.00,,,0.00,Wunderground v.1.15,2013-10-03 07:06:00,
2013-10-03 03:11:00,74.6,68.0,29.90,East,96,0.0,0.0,80,0.00,,,0.00,Wunderground v.1.15,2013-10-03 07:11:00,
2013-10-03 03:16:00,74.6,68.0,29.90,East,96,0.0,1.0,80,0.00,,,0.00,Wunderground v.1.15,2013-10-03 07:16:00,
2013-10-03 03:21:00,74.6,68.4,29.90,East,89,0.0,0.0,81,0.00,,,0.00,Wunderground v.1.15,2013-10-03 07:21:00,
2013-10-03 03:26:00,74.4,68.2,29.90,East,100,0.0,0.0,81,0.00,,,0.00,Wunderground v.1.15,2013-10-03 07:26:00,
2013-10-03 03:31:00,74.4,68.2,29.89,East,97,0.0,0.0,81,0.00,,,0.00,Wunderground v.1.15,2013-10-03 07:31:00,
2013-10-03 03:36:00,74.4,68.2,29.89,East,93,1.0,3.0,81,0.00,,,0.00,Wunderground v.1.15,2013-10-03 07:36:00,
2013-10-03 03:41:00,74.4,68.2,29.89,East,90,1.0,1.0,81,0.00,,,0.00,Wunderground v.1.15,2013-10-03 07:41:00,
2013-10-03 03:46:00,74.4,68.5,29.89,East,97,0.0,3.0,82,0.00,,,0.00,Wunderground v.1.15,2013-10-03 07:46:00,
2013-10-03 03:51:00,74.2,68.3,29.89,East,92,0.0,3.0,82,0.00,,,0.00,Wunderground v.1.15,2013-10-03 07:51:00,
2013-10-03 03:56:00,74.2,68.3,29.89,ESE,102,0.0,3.0,82,0.00,,,0.00,Wunderground v.1.15,2013-10-03 07:56:00,
2013-10-03 04:01:00,74.0,68.2,29.88,East,95,0.0,0.0,82,0.00,,,0.00,Wunderground v.1.15,2013-10-03 08:01:00,
2013-10-03 04:06:00,74.0,68.2,29.88,East,80,0.0,2.0,82,0.00,,,0.00,Wunderground v.1.15,2013-10-03 08:06:00,
2013-10-03 04:11:00,74.0,68.2,29.88,East,93,0.0,0.0,82,0.00,,,0.00,Wunderground v.1.15,2013-10-03 08:11:00,
2013-10-03 04:16:00,73.9,68.1,29.87,East,96,0.0,1.0,82,0.00,,,0.00,Wunderground v.1.15,2013-10-03 08:16:00,
2013-10-03 04:21:00,73.9,68.4,29.87,East,96,0.0,0.0,83,0.00,,,0.00,Wunderground v.1.15,2013-10-03 08:21:00,
2013-10-03 04:26:00,73.9,68.4,29.87,East,96,0.0,0.0,83,0.00,,,0.00,Wunderground v.1.15,2013-10-03 08:26:00,
2013-10-03 04:31:00,73.9,68.4,29.87,East,96,0.0,0.0,83,0.00,,,0.00,Wunderground v.1.15,2013-10-03 08:31:00,
2013-10-03 04:36:00,73.7,68.2,29.87,East,92,0.0,2.0,83,0.00,,,0.00,Wunderground v.1.15,2013-10-03 08:36:00,
2013-10-03 04:41:00,73.7,68.2,29.87,East,79,0.0,0.0,83,0.00,,,0.00,Wunderground v.1.15,2013-10-03 08:41:00,
2013-10-03 04:46:00,73.7,68.2,29.86,ENE,69,0.0,0.0,83,0.00,,,0.00,Wunderground v.1.15,2013-10-03 08:46:00,
2013-10-03 04:51:00,73.7,68.2,29.86,East,97,0.0,0.0,83,0.00,,,0.00,Wunderground v.1.15,2013-10-03 08:51:00,
2013-10-03 04:56:00,73.5,68.0,29.86,East,88,0.0,1.0,83,0.00,,,0.00,Wunderground v.1.15,2013-10-03 08:56:00,
2013-10-03 05:01:00,73.5,68.4,29.86,East,88,0.0,0.0,84,0.00,,,0.00,Wunderground v.1.15,2013-10-03 09:01:00,
2013-10-03 05:06:00,73.5,68.4,29.86,East,92,0.0,1.0,84,0.00,,,0.00,Wunderground v.1.15,2013-10-03 09:06:00,
2013-10-03 05:11:00,73.5,68.4,29.86,East,92,0.0,0.0,84,0.00,,,0.00,Wunderground v.1.15,2013-10-03 09:11:00,
2013-10-03 05:16:00,73.5,68.4,29.86,NE,45,0.0,1.0,84,0.00,,,0.00,Wunderground v.1.15,2013-10-03 09:16:00,
2013-10-03 05:21:00,73.3,68.2,29.86,ENE,68,0.0,0.0,84,0.00,,,0.00,Wunderground v.1.15,2013-10-03 09:21:00,
2013-10-03 05:26:00,73.3,68.2,29.86,NNE,28,0.0,1.0,84,0.00,,,0.00,Wunderground v.1.15,2013-10-03 09:26:00,
2013-10-03 05:32:00,73.3,68.2,29.87,East,97,0.0,2.0,84,0.00,,,0.00,Wunderground v.1.15,2013-10-03 09:32:00,
2013-10-03 05:36:00,73.3,68.2,29.87,East,83,2.0,2.0,84,0.00,,,0.00,Wunderground v.1.15,2013-10-03 09:36:00,
2013-10-03 05:41:00,73.2,68.1,29.87,East,83,0.0,1.0,84,0.00,,,0.00,Wunderground v.1.15,2013-10-03 09:41:00,
2013-10-03 05:47:00,73.2,68.1,29.87,East,86,0.0,1.0,84,0.00,,,0.00,Wunderground v.1.15,2013-10-03 09:47:00,
2013-10-03 05:52:00,73.2,68.1,29.87,East,93,0.0,5.0,84,0.00,,,0.00,Wunderground v.1.15,2013-10-03 09:52:00,
2013-10-03 05:57:00,73.2,68.1,29.87,East,93,0.0,5.0,84,0.00,,,0.00,Wunderground v.1.15,2013-10-03 09:57:00,
2013-10-03 06:02:00,73.0,67.9,29.87,East,86,0.0,0.0,84,0.00,,,0.00,Wunderground v.1.15,2013-10-03 10:02:00,
2013-10-03 06:07:00,73.0,67.9,29.87,East,85,0.0,1.0,84,0.00,,,0.00,Wunderground v.1.15,2013-10-03 10:07:00,
2013-10-03 06:12:00,73.0,67.9,29.87,East,85,0.0,0.0,84,0.00,,,0.00,Wunderground v.1.15,2013-10-03 10:12:00,
2013-10-03 06:17:00,73.0,68.2,29.87,East,86,0.0,0.0,85,0.00,,,0.00,Wunderground v.1.15,2013-10-03 10:17:00,
2013-10-03 06:22:00,73.0,68.2,29.87,NNE,13,0.0,0.0,85,0.00,,,0.00,Wunderground v.1.15,2013-10-03 10:22:00,
2013-10-03 06:27:00,72.8,68.0,29.87,East,79,0.0,1.0,85,0.00,,,0.00,Wunderground v.1.15,2013-10-03 10:27:00,
2013-10-03 06:32:00,72.8,68.0,29.88,East,85,0.0,1.0,85,0.00,,,0.00,Wunderground v.1.15,2013-10-03 10:32:00,
2013-10-03 06:37:00,72.8,68.0,29.88,East,95,0.0,2.0,85,0.00,,,0.00,Wunderground v.1.15,2013-10-03 10:37:00,
2013-10-03 06:42:00,72.8,68.0,29.88,East,93,0.0,0.0,85,0.00,,,0.00,Wunderground v.1.15,2013-10-03 10:42:00,
2013-10-03 06:47:00,72.7,67.9,29.88,East,85,0.0,2.0,85,0.00,,,0.00,Wunderground v.1.15,2013-10-03 10:47:00,
2013-10-03 06:52:00,72.7,67.9,29.88,East,79,0.0,1.0,85,0.00,,,0.00,Wunderground v.1.15,2013-10-03 10:52:00,
2013-10-03 06:57:00,72.7,67.9,29.88,ESE,109,0.0,1.0,85,0.00,,,0.00,Wunderground v.1.15,2013-10-03 10:57:00,
2013-10-03 07:02:00,72.7,67.9,29.89,East,93,0.0,1.0,85,0.00,,,0.00,Wunderground v.1.15,2013-10-03 11:02:00,
2013-10-03 07:07:00,72.5,67.7,29.89,East,92,0.0,1.0,85,0.00,,,0.00,Wunderground v.1.15,2013-10-03 11:07:00,
2013-10-03 07:12:00,72.5,67.7,29.89,East,83,0.0,2.0,85,0.00,,,0.00,Wunderground v.1.15,2013-10-03 11:12:00,
2013-10-03 07:17:00,72.5,67.7,29.89,East,100,0.0,2.0,85,0.00,,,0.00,Wunderground v.1.15,2013-10-03 11:17:00,
2013-10-03 07:22:00,72.3,67.5,29.89,East,99,0.0,0.0,85,0.00,,,0.00,Wunderground v.1.15,2013-10-03 11:22:00,
2013-10-03 07:27:00,72.3,67.5,29.89,East,89,0.0,0.0,85,0.00,,,0.00,Wunderground v.1.15,2013-10-03 11:27:00,
2013-10-03 07:32:00,72.3,67.5,29.90,ESE,104,0.0,0.0,85,0.00,,,0.00,Wunderground v.1.15,2013-10-03 11:32:00,
2013-10-03 07:37:00,72.3,67.5,29.90,ESE,104,0.0,0.0,85,0.00,,,0.00,Wunderground v.1.15,2013-10-03 11:37:00,
2013-10-03 07:42:00,72.3,67.5,29.90,ESE,106,0.0,0.0,85,0.00,,,0.00,Wunderground v.1.15,2013-10-03 11:42:00,
2013-10-03 07:47:00,72.3,67.5,29.90,NE,49,1.0,1.0,85,0.00,,,0.00,Wunderground v.1.15,2013-10-03 11:47:00,
2013-10-03 07:52:00,72.3,67.5,29.90,NE,54,0.0,1.0,85,0.00,,,0.00,Wunderground v.1.15,2013-10-03 11:52:00,
2013-10-03 07:57:00,72.3,67.5,29.90,ESE,103,0.0,6.0,85,0.00,,,0.00,Wunderground v.1.15,2013-10-03 11:57:00,
2013-10-03 08:02:00,72.3,67.5,29.90,ESE,102,0.0,3.0,85,0.00,,,0.00,Wunderground v.1.15,2013-10-03 12:02:00,
2013-10-03 08:07:00,72.5,67.7,29.90,East,93,0.0,3.0,85,0.00,,,0.00,Wunderground v.1.15,2013-10-03 12:07:00,
2013-10-03 08:12:00,72.5,67.7,29.90,North,8,0.0,2.0,85,0.00,,,0.00,Wunderground v.1.15,2013-10-03 12:12:00,
2013-10-03 08:17:00,72.7,67.9,29.91,East,90,0.0,5.0,85,0.00,,,0.00,Wunderground v.1.15,2013-10-03 12:17:00,
2013-10-03 08:22:00,72.8,68.0,29.91,East,88,0.0,6.0,85,0.00,,,0.00,Wunderground v.1.15,2013-10-03 12:22:00,
2013-10-03 08:27:00,72.8,68.0,29.91,East,86,0.0,6.0,85,0.00,,,0.00,Wunderground v.1.15,2013-10-03 12:27:00,
2013-10-03 08:32:00,73.0,68.2,29.92,East,95,2.0,6.0,85,0.00,,,0.00,Wunderground v.1.15,2013-10-03 12:32:00,
2013-10-03 08:37:00,73.2,68.4,29.92,ENE,76,2.0,6.0,85,0.00,,,0.00,Wunderground v.1.15,2013-10-03 12:37:00,
2013-10-03 08:42:00,73.3,68.5,29.92,East,92,0.0,4.0,85,0.00,,,0.00,Wunderground v.1.15,2013-10-03 12:42:00,
2013-10-03 08:47:00,73.5,68.4,29.92,East,92,0.0,7.0,84,0.00,,,0.00,Wunderground v.1.15,2013-10-03 12:47:00,
2013-10-03 08:53:00,73.9,68.8,29.92,East,96,3.0,6.0,84,0.00,,,0.00,Wunderground v.1.15,2013-10-03 12:53:00,
2013-10-03 08:58:00,74.0,68.9,29.92,ESE,117,0.0,6.0,84,0.00,,,0.00,Wunderground v.1.15,2013-10-03 12:58:00,
2013-10-03 09:03:00,74.4,69.2,29.93,East,90,0.0,2.0,84,0.00,,,0.00,Wunderground v.1.15,2013-10-03 13:03:00,
2013-10-03 09:08:00,74.6,69.4,29.93,SE,127,0.0,6.0,84,0.00,,,0.00,Wunderground v.1.15,2013-10-03 13:08:00,
2013-10-03 09:13:00,74.9,69.4,29.93,East,86,1.0,7.0,83,0.00,,,0.00,Wunderground v.1.15,2013-10-03 13:13:00,
2013-10-03 09:18:00,75.3,69.8,29.93,East,89,0.0,7.0,83,0.00,,,0.00,Wunderground v.1.15,2013-10-03 13:18:00,
2013-10-03 09:23:00,75.4,69.9,29.93,ESE,102,0.0,10.0,83,0.00,,,0.00,Wunderground v.1.15,2013-10-03 13:23:00,
2013-10-03 09:28:00,75.8,69.9,29.93,SE,130,0.0,10.0,82,0.00,,,0.00,Wunderground v.1.15,2013-10-03 13:28:00,
2013-10-03 09:33:00,76.3,70.4,29.94,East,99,0.0,2.0,82,0.00,,,0.00,Wunderground v.1.15,2013-10-03 13:33:00,
2013-10-03 09:38:00,76.8,70.5,29.94,East,99,0.0,7.0,81,0.00,,,0.00,Wunderground v.1.15,2013-10-03 13:38:00,
2013-10-03 09:43:00,77.4,70.7,29.94,East,93,0.0,6.0,80,0.00,,,0.00,Wunderground v.1.15,2013-10-03 13:43:00,
2013-10-03 09:48:00,77.9,70.9,29.95,SSE,152,0.0,7.0,79,0.00,,,0.00,Wunderground v.1.15,2013-10-03 13:48:00,
2013-10-03 09:53:00,78.6,71.2,29.95,SE,128,0.0,7.0,78,0.00,,,0.00,Wunderground v.1.15,2013-10-03 13:53:00,
2013-10-03 09:58:00,79.4,71.6,29.95,East,80,3.0,7.0,77,0.00,,,0.00,Wunderground v.1.15,2013-10-03 13:58:00,
2013-10-03 10:03:00,79.9,71.7,29.95,East,80,0.0,5.0,76,0.00,,,0.00,Wunderground v.1.15,2013-10-03 14:03:00,
2013-10-03 10:08:00,80.5,71.8,29.95,ESE,106,0.0,9.0,75,0.00,,,0.00,Wunderground v.1.15,2013-10-03 14:08:00,
2013-10-03 10:13:00,81.1,72.0,29.95,SE,144,0.0,2.0,74,0.00,,,0.00,Wunderground v.1.15,2013-10-03 14:13:00,
2013-10-03 10:18:00,81.8,72.3,29.95,ESE,109,1.0,6.0,73,0.00,,,0.00,Wunderground v.1.15,2013-10-03 14:18:00,
2013-10-03 10:23:00,82.2,72.3,29.95,East,95,5.0,7.0,72,0.00,,,0.00,Wunderground v.1.15,2013-10-03 14:23:00,
2013-10-03 10:28:00,82.4,72.0,29.95,East,96,1.0,7.0,71,0.00,,,0.00,Wunderground v.1.15,2013-10-03 14:28:00,
2013-10-03 10:33:00,82.6,72.2,29.95,East,83,0.0,2.0,71,0.00,,,0.00,Wunderground v.1.15,2013-10-03 14:33:00,
2013-10-03 10:38:00,82.8,72.0,29.95,ENE,65,3.0,10.0,70,0.00,,,0.00,Wunderground v.1.15,2013-10-03 14:38:00,
2013-10-03 10:43:00,83.2,72.4,29.95,SE,144,0.0,6.0,70,0.00,,,0.00,Wunderground v.1.15,2013-10-03 14:43:00,
2013-10-03 10:48:00,83.6,71.9,29.95,SSE,154,4.0,8.0,68,0.00,,,0.00,Wunderground v.1.15,2013-10-03 14:48:00,
2013-10-03 10:53:00,84.0,72.3,29.95,East,82,0.0,10.0,68,0.00,,,0.00,Wunderground v.1.15,2013-10-03 14:53:00,
2013-10-03 10:58:00,84.3,72.6,29.95,East,80,1.0,10.0,68,0.00,,,0.00,Wunderground v.1.15,2013-10-03 14:58:00,
2013-10-03 11:03:00,84.5,71.4,29.95,ENE,78,0.0,8.0,65,0.00,,,0.00,Wunderground v.1.15,2013-10-03 15:03:00,
2013-10-03 11:08:00,84.5,71.0,29.95,East,95,2.0,8.0,64,0.00,,,0.00,Wunderground v.1.15,2013-10-03 15:08:00,
2013-10-03 11:13:00,84.7,71.6,29.95,East,88,0.0,8.0,65,0.00,,,0.00,Wunderground v.1.15,2013-10-03 15:13:00,
2013-10-03 11:18:00,85.1,71.5,29.95,South,174,0.0,8.0,64,0.00,,,0.00,Wunderground v.1.15,2013-10-03 15:18:00,
2013-10-03 11:23:00,85.3,71.3,29.95,SSE,168,0.0,7.0,63,0.00,,,0.00,Wunderground v.1.15,2013-10-03 15:23:00,
2013-10-03 11:28:00,85.7,71.7,29.95,East,99,4.0,7.0,63,0.00,,,0.00,Wunderground v.1.15,2013-10-03 15:28:00,
2013-10-03 11:33:00,86.1,71.6,29.95,SE,136,0.0,7.0,62,0.00,,,0.00,Wunderground v.1.15,2013-10-03 15:33:00,
2013-10-03 11:38:00,86.5,71.9,29.95,East,90,6.0,7.0,62,0.00,,,0.00,Wunderground v.1.15,2013-10-03 15:38:00,
2013-10-03 11:43:00,87.0,71.4,29.95,ESE,117,0.0,4.0,60,0.00,,,0.00,Wunderground v.1.15,2013-10-03 15:43:00,
2013-10-03 11:49:00,87.2,71.1,29.95,SSE,167,3.0,8.0,59,0.00,,,0.00,Wunderground v.1.15,2013-10-03 15:49:00,
2013-10-03 11:54:00,87.4,71.3,29.95,East,90,0.0,7.0,59,0.00,,,0.00,Wunderground v.1.15,2013-10-03 15:54:00,
2013-10-03 11:59:00,87.8,70.7,29.95,ESE,113,0.0,7.0,57,0.00,,,0.00,Wunderground v.1.15,2013-10-03 15:59:00,
2013-10-03 12:04:00,88.0,70.9,29.95,ENE,78,10.0,10.0,57,0.00,,,0.00,Wunderground v.1.15,2013-10-03 16:04:00,
2013-10-03 12:09:00,87.8,69.6,29.95,NE,37,3.0,10.0,55,0.00,,,0.00,Wunderground v.1.15,2013-10-03 16:09:00,
2013-10-03 12:14:00,87.8,70.1,29.95,SSE,160,6.0,7.0,56,0.00,,,0.00,Wunderground v.1.15,2013-10-03 16:14:00,
2013-10-03 12:19:00,88.0,69.8,29.95,SE,138,0.0,8.0,55,0.00,,,0.00,Wunderground v.1.15,2013-10-03 16:19:00,
2013-10-03 12:24:00,88.4,70.2,29.95,SSE,155,3.0,6.0,55,0.00,,,0.00,Wunderground v.1.15,2013-10-03 16:24:00,
2013-10-03 12:29:00,88.8,70.5,29.95,ESE,116,2.0,7.0,55,0.00,,,0.00,Wunderground v.1.15,2013-10-03 16:29:00,
2013-10-03 12:34:00,89.0,70.2,29.94,SSE,148,0.0,6.0,54,0.00,,,0.00,Wunderground v.1.15,2013-10-03 16:34:00,
2013-10-03 12:39:00,89.3,69.9,29.94,North,10,0.0,6.0,53,0.00,,,0.00,Wunderground v.1.15,2013-10-03 16:39:00,
2013-10-03 12:44:00,89.5,70.1,29.94,East,83,0.0,6.0,53,0.00,,,0.00,Wunderground v.1.15,2013-10-03 16:44:00,
2013-10-03 12:49:00,89.9,70.5,29.93,SSE,151,0.0,8.0,53,0.00,,,0.00,Wunderground v.1.15,2013-10-03 16:49:00,
2013-10-03 12:54:00,90.3,70.8,29.93,NE,48,0.0,1.0,53,0.00,,,0.00,Wunderground v.1.15,2013-10-03 16:54:00,
2013-10-03 12:59:00,90.7,70.7,29.93,ESE,104,4.0,5.0,52,0.00,,,0.00,Wunderground v.1.15,2013-10-03 16:59:00,
2013-10-03 13:04:00,90.7,70.1,29.93,ENE,72,0.0,8.0,51,0.00,,,0.00,Wunderground v.1.15,2013-10-03 17:04:00,
2013-10-03 13:09:00,90.7,69.5,29.93,East,89,0.0,11.0,50,0.00,,,0.00,Wunderground v.1.15,2013-10-03 17:09:00,
2013-10-03 13:14:00,90.7,69.5,29.93,ESE,107,0.0,2.0,50,0.00,,,0.00,Wunderground v.1.15,2013-10-03 17:14:00,
2013-10-03 13:19:00,90.7,68.9,29.93,East,92,0.0,7.0,49,0.00,,,0.00,Wunderground v.1.15,2013-10-03 17:19:00,
2013-10-03 13:24:00,90.7,69.5,29.93,South,171,5.0,7.0,50,0.00,,,0.00,Wunderground v.1.15,2013-10-03 17:24:00,
2013-10-03 13:29:00,91.2,69.4,29.93,SSE,162,0.0,7.0,49,0.00,,,0.00,Wunderground v.1.15,2013-10-03 17:29:00,
2013-10-03 13:34:00,91.4,69.6,29.92,SSE,165,5.0,7.0,49,0.00,,,0.00,Wunderground v.1.15,2013-10-03 17:34:00,
2013-10-03 13:39:00,91.4,69.6,29.92,East,82,2.0,7.0,49,0.00,,,0.00,Wunderground v.1.15,2013-10-03 17:39:00,
2013-10-03 13:44:00,91.6,69.7,29.92,SSE,148,0.0,6.0,49,0.00,,,0.00,Wunderground v.1.15,2013-10-03 17:44:00,
2013-10-03 13:49:00,91.8,69.9,29.92,ENE,73,0.0,6.0,49,0.00,,,0.00,Wunderground v.1.15,2013-10-03 17:49:00,
2013-10-03 13:54:00,91.8,69.3,29.92,South,182,0.0,1.0,48,0.00,,,0.00,Wunderground v.1.15,2013-10-03 17:54:00,
2013-10-03 14:00:00,92.1,69.6,29.92,South,172,0.0,1.0,48,0.00,,,0.00,Wunderground v.1.15,2013-10-03 18:00:00,
2013-10-03 14:04:00,92.5,70.6,29.92,South,171,8.0,10.0,49,0.00,,,0.00,Wunderground v.1.15,2013-10-03 18:04:00,
2013-10-03 14:10:00,92.7,70.1,29.92,South,172,4.0,10.0,48,0.00,,,0.00,Wunderground v.1.15,2013-10-03 18:10:00,
2013-10-03 14:14:00,92.9,69.7,29.92,ESE,119,2.0,10.0,47,0.00,,,0.00,Wunderground v.1.15,2013-10-03 18:14:00,
2013-10-03 14:19:00,92.9,69.7,29.91,SSW,195,0.0,10.0,47,0.00,,,0.00,Wunderground v.1.15,2013-10-03 18:19:00,
2013-10-03 14:24:00,93.2,70.0,29.91,SSW,198,0.0,6.0,47,0.00,,,0.00,Wunderground v.1.15,2013-10-03 18:24:00,
2013-10-03 14:30:00,93.4,69.5,29.91,SSW,198,0.0,1.0,46,0.00,,,0.00,Wunderground v.1.15,2013-10-03 18:30:00,
2013-10-03 14:35:00,93.4,69.5,29.90,SSE,161,0.0,6.0,46,0.00,,,0.00,Wunderground v.1.15,2013-10-03 18:35:00,
2013-10-03 14:40:00,93.6,69.7,29.90,East,100,0.0,1.0,46,0.00,,,0.00,Wunderground v.1.15,2013-10-03 18:40:00,
2013-10-03 14:45:00,93.8,69.9,29.90,East,100,0.0,1.0,46,0.00,,,0.00,Wunderground v.1.15,2013-10-03 18:45:00,
2013-10-03 14:50:00,93.8,69.9,29.90,East,100,0.0,0.0,46,0.00,,,0.00,Wunderground v.1.15,2013-10-03 18:50:00,
2013-10-03 14:55:00,94.0,70.1,29.90,North,0,0.0,1.0,46,0.00,,,0.00,Wunderground v.1.15,2013-10-03 18:55:00,
2013-10-03 15:00:00,93.8,69.2,29.90,North,0,0.0,0.0,45,0.00,,,0.00,Wunderground v.1.15,2013-10-03 19:00:00,
2013-10-03 15:05:00,93.6,69.7,29.90,NNE,16,0.0,6.0,46,0.00,,,0.00,Wunderground v.1.15,2013-10-03 19:05:00,
2013-10-03 15:10:00,93.2,69.3,29.90,ESE,110,0.0,0.0,46,0.00,,,0.00,Wunderground v.1.15,2013-10-03 19:10:00,
2013-10-03 15:15:00,92.7,68.9,29.90,North,353,0.0,0.0,46,0.00,,,0.00,Wunderground v.1.15,2013-10-03 19:15:00,
2013-10-03 15:20:00,92.1,68.3,29.89,North,10,0.0,0.0,46,0.00,,,0.00,Wunderground v.1.15,2013-10-03 19:20:00,
2013-10-03 15:25:00,91.8,68.7,29.89,NNW,330,0.0,1.0,47,0.00,,,0.00,Wunderground v.1.15,2013-10-03 19:25:00,
2013-10-03 15:30:00,91.6,69.1,29.89,WNW,295,0.0,0.0,48,0.00,,,0.00,Wunderground v.1.15,2013-10-03 19:30:00,
2013-10-03 15:35:00,91.4,69.6,29.89,NW,320,2.0,6.0,49,0.00,,,0.00,Wunderground v.1.15,2013-10-03 19:35:00,
2013-10-03 15:40:00,90.7,69.5,29.89,West,263,0.0,1.0,50,0.00,,,0.00,Wunderground v.1.15,2013-10-03 19:40:00,
2013-10-03 15:45:00,90.3,69.7,29.89,WNW,282,0.0,3.0,51,0.00,,,0.00,Wunderground v.1.15,2013-10-03 19:45:00,
2013-10-03 15:50:00,89.9,69.3,29.89,WNW,298,2.0,2.0,51,0.00,,,0.00,Wunderground v.1.15,2013-10-03 19:50:00,
2013-10-03 15:55:00,89.3,68.8,29.89,WSW,258,2.0,6.0,51,0.00,,,0.00,Wunderground v.1.15,2013-10-03 19:55:00,
2013-10-03 16:00:00,88.8,68.3,29.89,West,275,3.0,3.0,51,0.00,,,0.00,Wunderground v.1.15,2013-10-03 20:00:00,
2013-10-03 16:05:00,88.2,68.9,29.89,NW,315,0.0,6.0,53,0.00,,,0.00,Wunderground v.1.15,2013-10-03 20:05:00,
2013-10-03 16:10:00,88.0,69.3,29.89,NW,305,0.0,1.0,54,0.00,,,0.00,Wunderground v.1.15,2013-10-03 20:10:00,
2013-10-03 16:15:00,87.8,69.1,29.89,WNW,289,0.0,1.0,54,0.00,,,0.00,Wunderground v.1.15,2013-10-03 20:15:00,
2013-10-03 16:20:00,87.6,69.4,29.88,West,265,5.0,5.0,55,0.00,,,0.00,Wunderground v.1.15,2013-10-03 20:20:00,
2013-10-03 16:25:00,87.4,69.3,29.88,North,354,0.0,5.0,55,0.00,,,0.00,Wunderground v.1.15,2013-10-03 20:25:00,
2013-10-03 16:30:00,87.2,69.6,29.88,WNW,294,3.0,3.0,56,0.00,,,0.00,Wunderground v.1.15,2013-10-03 20:30:00,
2013-10-03 16:35:00,87.0,69.4,29.88,NNW,328,0.0,4.0,56,0.00,,,0.00,Wunderground v.1.15,2013-10-03 20:35:00,
2013-10-03 16:40:00,87.2,70.1,29.88,NW,315,2.0,3.0,57,0.00,,,0.00,Wunderground v.1.15,2013-10-03 20:40:00,
2013-10-03 16:45:00,87.2,69.6,29.88,NNW,335,0.0,6.0,56,0.00,,,0.00,Wunderground v.1.15,2013-10-03 20:45:00,
2013-10-03 16:50:00,87.4,69.8,29.88,NW,308,0.0,2.0,56,0.00,,,0.00,Wunderground v.1.15,2013-10-03 20:50:00,
2013-10-03 16:55:00,87.4,70.3,29.88,NNW,339,0.0,2.0,57,0.00,,,0.00,Wunderground v.1.15,2013-10-03 20:55:00,
2013-10-03 17:00:00,87.6,70.5,29.88,North,0,0.0,1.0,57,0.00,,,0.00,Wunderground v.1.15,2013-10-03 21:00:00,
2013-10-03 17:05:00,87.8,70.1,29.88,NW,322,0.0,1.0,56,0.00,,,0.00,Wunderground v.1.15,2013-10-03 21:05:00,
2013-10-03 17:10:00,87.8,70.1,29.88,NNW,336,0.0,1.0,56,0.00,,,0.00,Wunderground v.1.15,2013-10-03 21:10:00,
2013-10-03 17:15:00,88.0,70.9,29.88,North,359,3.0,4.0,57,0.00,,,0.00,Wunderground v.1.15,2013-10-03 21:15:00,
2013-10-03 17:20:00,87.8,70.7,29.88,NNE,17,0.0,0.0,57,0.00,,,0.00,Wunderground v.1.15,2013-10-03 21:20:00,
2013-10-03 17:25:00,87.8,71.2,29.88,NW,319,0.0,0.0,58,0.00,,,0.00,Wunderground v.1.15,2013-10-03 21:25:00,
2013-10-03 17:30:00,87.8,71.2,29.88,North,3,0.0,0.0,58,0.00,,,0.00,Wunderground v.1.15,2013-10-03 21:30:00,
2013-10-03 17:35:00,87.6,71.0,29.88,North,11,0.0,0.0,58,0.00,,,0.00,Wunderground v.1.15,2013-10-03 21:35:00,
2013-10-03 17:40:00,87.6,71.0,29.88,NW,326,0.0,2.0,58,0.00,,,0.00,Wunderground v.1.15,2013-10-03 21:40:00,
2013-10-03 17:45:00,87.4,70.8,29.88,NW,319,0.0,2.0,58,0.00,,,0.00,Wunderground v.1.15,2013-10-03 21:45:00,
2013-10-03 17:50:00,87.2,70.6,29.88,NW,323,0.0,0.0,58,0.00,,,0.00,Wunderground v.1.15,2013-10-03 21:50:00,
2013-10-03 17:56:00,87.0,70.4,29.88,North,350,0.0,0.0,58,0.00,,,0.00,Wunderground v.1.15,2013-10-03 21:56:00,
2013-10-03 18:01:00,86.7,70.2,29.88,North,350,0.0,0.0,58,0.00,,,0.00,Wunderground v.1.15,2013-10-03 22:01:00,
2013-10-03 18:06:00,86.5,70.5,29.88,North,350,0.0,0.0,59,0.00,,,0.00,Wunderground v.1.15,2013-10-03 22:06:00,
2013-10-03 18:11:00,86.3,70.3,29.88,North,350,0.0,0.0,59,0.00,,,0.00,Wunderground v.1.15,2013-10-03 22:11:00,
2013-10-03 18:16:00,86.1,70.1,29.89,North,352,0.0,1.0,59,0.00,,,0.00,Wunderground v.1.15,2013-10-03 22:16:00,
2013-10-03 18:21:00,85.7,69.7,29.89,North,356,0.0,0.0,59,0.00,,,0.00,Wunderground v.1.15,2013-10-03 22:21:00,
2013-10-03 18:26:00,85.5,70.0,29.89,WNW,296,0.0,2.0,60,0.00,,,0.00,Wunderground v.1.15,2013-10-03 22:26:00,
2013-10-03 18:31:00,85.1,70.1,29.89,WNW,282,0.0,0.0,61,0.00,,,0.00,Wunderground v.1.15,2013-10-03 22:31:00,
2013-10-03 18:36:00,84.9,70.4,29.89,West,281,0.0,0.0,62,0.00,,,0.00,Wunderground v.1.15,2013-10-03 22:36:00,
2013-10-03 18:41:00,84.7,70.7,29.89,WNW,282,0.0,0.0,63,0.00,,,0.00,Wunderground v.1.15,2013-10-03 22:41:00,
2013-10-03 18:46:00,84.5,70.5,29.89,WNW,282,0.0,0.0,63,0.00,,,0.00,Wunderground v.1.15,2013-10-03 22:46:00,
2013-10-03 18:51:00,84.5,70.5,29.89,WNW,282,0.0,0.0,63,0.00,,,0.00,Wunderground v.1.15,2013-10-03 22:51:00,
2013-10-03 18:56:00,84.1,70.6,29.89,WNW,282,0.0,0.0,64,0.00,,,0.00,Wunderground v.1.15,2013-10-03 22:56:00,
2013-10-03 19:01:00,84.1,70.6,29.89,WNW,282,0.0,0.0,64,0.00,,,0.00,Wunderground v.1.15,2013-10-03 23:01:00,
2013-10-03 19:06:00,84.0,71.0,29.89,WNW,291,0.0,2.0,65,0.00,,,0.00,Wunderground v.1.15,2013-10-03 23:06:00,
2013-10-03 19:11:00,83.8,70.8,29.89,NNE,24,0.0,0.0,65,0.00,,,0.00,Wunderground v.1.15,2013-10-03 23:11:00,
2013-10-03 19:16:00,83.6,71.0,29.89,NNE,24,0.0,0.0,66,0.00,,,0.00,Wunderground v.1.15,2013-10-03 23:16:00,
2013-10-03 19:21:00,83.2,70.7,29.89,NNE,24,0.0,0.0,66,0.00,,,0.00,Wunderground v.1.15,2013-10-03 23:21:00,
2013-10-03 19:26:00,83.0,70.5,29.89,NNE,14,0.0,0.0,66,0.00,,,0.00,Wunderground v.1.15,2013-10-03 23:26:00,
2013-10-03 19:31:00,82.8,70.7,29.89,NNE,14,0.0,0.0,67,0.00,,,0.00,Wunderground v.1.15,2013-10-03 23:31:00,
2013-10-03 19:36:00,82.6,70.5,29.90,NNE,14,0.0,0.0,67,0.00,,,0.00,Wunderground v.1.15,2013-10-03 23:36:00,
2013-10-03 19:41:00,82.4,70.8,29.90,NNE,14,0.0,0.0,68,0.00,,,0.00,Wunderground v.1.15,2013-10-03 23:41:00,
2013-10-03 19:46:00,82.2,70.6,29.90,NNE,14,0.0,0.0,68,0.00,,,0.00,Wunderground v.1.15,2013-10-03 23:46:00,
2013-10-03 19:51:00,82.2,70.6,29.90,NNE,14,0.0,0.0,68,0.00,,,0.00,Wunderground v.1.15,2013-10-03 23:51:00,
2013-10-03 19:56:00,82.0,70.4,29.90,NNE,14,0.0,0.0,68,0.00,,,0.00,Wunderground v.1.15,2013-10-03 23:56:00,
2013-10-03 20:01:00,81.8,70.6,29.90,NNE,14,0.0,0.0,69,0.00,,,0.00,Wunderground v.1.15,2013-10-04 00:01:00,
2013-10-03 20:06:00,81.8,70.6,29.90,NNE,14,0.0,0.0,69,0.00,,,0.00,Wunderground v.1.15,2013-10-04 00:06:00,
2013-10-03 20:11:00,81.6,70.9,29.90,NNE,14,0.0,0.0,70,0.00,,,0.00,Wunderground v.1.15,2013-10-04 00:11:00,
2013-10-03 20:16:00,81.6,70.9,29.90,NNE,14,0.0,0.0,70,0.00,,,0.00,Wunderground v.1.15,2013-10-04 00:16:00,
2013-10-03 20:21:00,81.4,70.7,29.90,NNE,14,0.0,0.0,70,0.00,,,0.00,Wunderground v.1.15,2013-10-04 00:21:00,
2013-10-03 20:26:00,81.4,71.1,29.90,NNE,14,0.0,0.0,71,0.00,,,0.00,Wunderground v.1.15,2013-10-04 00:26:00,
2013-10-03 20:31:00,81.2,70.9,29.90,NNE,14,0.0,0.0,71,0.00,,,0.00,Wunderground v.1.15,2013-10-04 00:31:00,
2013-10-03 20:36:00,81.1,71.2,29.90,NNE,14,0.0,0.0,72,0.00,,,0.00,Wunderground v.1.15,2013-10-04 00:36:00,
2013-10-03 20:41:00,81.1,71.2,29.90,NNE,14,0.0,0.0,72,0.00,,,0.00,Wunderground v.1.15,2013-10-04 00:41:00,
2013-10-03 20:46:00,81.1,71.2,29.90,NNE,14,0.0,0.0,72,0.00,,,0.00,Wunderground v.1.15,2013-10-04 00:46:00,
2013-10-03 20:51:00,80.9,71.0,29.90,NNE,14,0.0,0.0,72,0.00,,,0.00,Wunderground v.1.15,2013-10-04 00:51:00,
2013-10-03 20:56:00,80.9,71.0,29.90,NNE,14,0.0,0.0,72,0.00,,,0.00,Wunderground v.1.15,2013-10-04 00:56:00,
2013-10-03 21:01:00,80.7,70.8,29.90,NNE,14,0.0,0.0,72,0.00,,,0.00,Wunderground v.1.15,2013-10-04 01:01:00,
2013-10-03 21:06:00,80.7,71.2,29.90,NNE,14,0.0,0.0,73,0.00,,,0.00,Wunderground v.1.15,2013-10-04 01:06:00,
2013-10-03 21:11:00,80.7,71.2,29.90,NNE,14,0.0,0.0,73,0.00,,,0.00,Wunderground v.1.15,2013-10-04 01:11:00,
2013-10-03 21:16:00,80.5,71.0,29.91,NNE,14,0.0,0.0,73,0.00,,,0.00,Wunderground v.1.15,2013-10-04 01:16:00,
2013-10-03 21:21:00,80.5,71.4,29.91,NNE,14,0.0,0.0,74,0.00,,,0.00,Wunderground v.1.15,2013-10-04 01:21:00,
2013-10-03 21:26:00,80.3,71.3,29.91,NNE,14,0.0,0.0,74,0.00,,,0.00,Wunderground v.1.15,2013-10-04 01:26:00,
2013-10-03 21:31:00,80.3,71.3,29.91,NNE,14,0.0,0.0,74,0.00,,,0.00,Wunderground v.1.15,2013-10-04 01:31:00,
2013-10-03 21:36:00,80.1,71.1,29.91,NNE,14,0.0,0.0,74,0.00,,,0.00,Wunderground v.1.15,2013-10-04 01:36:00,
2013-10-03 21:41:00,80.1,71.1,29.91,NNE,14,0.0,0.0,74,0.00,,,0.00,Wunderground v.1.15,2013-10-04 01:41:00,
2013-10-03 21:46:00,80.1,71.5,29.92,NNE,14,0.0,0.0,75,0.00,,,0.00,Wunderground v.1.15,2013-10-04 01:46:00,
2013-10-03 21:52:00,79.9,71.3,29.92,NNE,14,0.0,0.0,75,0.00,,,0.00,Wunderground v.1.15,2013-10-04 01:52:00,
2013-10-03 21:57:00,79.9,71.3,29.92,NNE,14,0.0,0.0,75,0.00,,,0.00,Wunderground v.1.15,2013-10-04 01:57:00,
2013-10-03 22:02:00,79.9,71.7,29.92,NNE,14,0.0,0.0,76,0.00,,,0.00,Wunderground v.1.15,2013-10-04 02:02:00,
2013-10-03 22:07:00,79.9,71.7,29.92,NNE,14,0.0,0.0,76,0.00,,,0.00,Wunderground v.1.15,2013-10-04 02:07:00,
2013-10-03 22:12:00,79.9,71.7,29.92,NNE,14,0.0,0.0,76,0.00,,,0.00,Wunderground v.1.15,2013-10-04 02:12:00,
2013-10-03 22:17:00,79.8,71.6,29.92,NNE,14,0.0,0.0,76,0.00,,,0.00,Wunderground v.1.15,2013-10-04 02:17:00,
2013-10-03 22:22:00,79.8,71.6,29.92,NNE,14,0.0,0.0,76,0.00,,,0.00,Wunderground v.1.15,2013-10-04 02:22:00,
2013-10-03 22:27:00,79.8,71.6,29.92,NNE,14,0.0,0.0,76,0.00,,,0.00,Wunderground v.1.15,2013-10-04 02:27:00,
2013-10-03 22:32:00,79.6,71.8,29.92,NNE,14,0.0,0.0,77,0.00,,,0.00,Wunderground v.1.15,2013-10-04 02:32:00,
2013-10-03 22:37:00,79.6,71.8,29.92,NNE,14,0.0,0.0,77,0.00,,,0.00,Wunderground v.1.15,2013-10-04 02:37:00,
2013-10-03 22:42:00,79.6,71.8,29.92,NNE,14,0.0,0.0,77,0.00,,,0.00,Wunderground v.1.15,2013-10-04 02:42:00,
2013-10-03 22:47:00,79.6,71.8,29.93,NNE,14,0.0,0.0,77,0.00,,,0.00,Wunderground v.1.15,2013-10-04 02:47:00,
2013-10-03 22:52:00,79.4,71.6,29.93,NNE,14,0.0,0.0,77,0.00,,,0.00,Wunderground v.1.15,2013-10-04 02:52:00,
2013-10-03 22:57:00,79.4,71.6,29.93,NNE,14,0.0,0.0,77,0.00,,,0.00,Wunderground v.1.15,2013-10-04 02:57:00,
2013-10-03 23:02:00,79.4,71.6,29.93,NNE,14,0.0,0.0,77,0.00,,,0.00,Wunderground v.1.15,2013-10-04 03:02:00,
2013-10-03 23:07:00,79.4,71.9,29.93,East,86,0.0,0.0,78,0.00,,,0.00,Wunderground v.1.15,2013-10-04 03:07:00,
2013-10-03 23:12:00,79.2,71.7,29.93,East,90,0.0,0.0,78,0.00,,,0.00,Wunderground v.1.15,2013-10-04 03:12:00,
2013-10-03 23:17:00,79.2,71.7,29.93,ENE,76,0.0,0.0,78,0.00,,,0.00,Wunderground v.1.15,2013-10-04 03:17:00,
2013-10-03 23:22:00,79.2,71.7,29.93,ENE,76,0.0,0.0,78,0.00,,,0.00,Wunderground v.1.15,2013-10-04 03:22:00,
2013-10-03 23:27:00,79.2,72.1,29.93,ENE,76,0.0,0.0,79,0.00,,,0.00,Wunderground v.1.15,2013-10-04 03:27:00,
2013-10-03 23:32:00,79.0,71.9,29.93,ENE,76,0.0,0.0,79,0.00,,,0.00,Wunderground v.1.15,2013-10-04 03:32:00,
2013-10-03 23:37:00,79.0,71.9,29.93,ENE,76,0.0,0.0,79,0.00,,,0.00,Wunderground v.1.15,2013-10-04 03:37:00,
2013-10-03 23:42:00,79.0,71.9,29.93,ENE,76,0.0,0.0,79,0.00,,,0.00,Wunderground v.1.15,2013-10-04 03:42:00,
2013-10-03 23:47:00,79.0,71.9,29.93,ENE,76,0.0,0.0,79,0.00,,,0.00,Wunderground v.1.15,2013-10-04 03:47:00,
2013-10-03 23:52:00,78.8,71.7,29.93,ENE,76,0.0,0.0,79,0.00,,,0.00,Wunderground v.1.15,2013-10-04 03:52:00,
2013-10-03 23:57:00,78.8,71.7,29.93,ENE,76,0.0,0.0,79,0.00,,,0.00,Wunderground v.1.15,2013-10-04 03:57:00,